This demonstration page uses our WeatherBlox Daily Observations layout. Learn more.

Left ArrowRight Arrow

39.51506, -84.39828

Hourly Observations for May 29, 2018

Temp ( °F °C ) Dew Point ( °F °C ) Humidity (%) Winds ( mph kmh ) Pressure ( in mb ) Visibility ( mi km ) Precip ( " mm )
12:15 am 00:15 Clear 75 24.1 67 19.4 75 75 SSE 3 6 29.94 1014 10 16 0.00 0.00
12:35 am 00:35 Clear 73 22.5 68 20 86 86 Calm 29.94 1014 10 16 0.00 0.00
12:55 am 00:55 Clear 72 22 68 20.1 89 89 Calm 29.94 1014 10 16 0.00 0.00
1:15 am 01:15 Clear 71 21.4 67 19.7 90 90 NW 3 6 29.94 1014 10 16 0.00 0.00
1:35 am 01:35 Clear 70 21.2 67 19.6 91 91 NW 3 6 29.94 1014 10 16 0.00 0.00
1:55 am 01:55 Clear 70 20.9 67 19.6 92 92 Calm 29.94 1014 10 16 0.00 0.00
2:15 am 02:15 Clear 68 20.2 66 19 93 93 Calm 29.94 1014 10 16 0.00 0.00
2:35 am 02:35 Clear 69 20.3 67 19.2 93 93 N 3 6 29.91 1013 10 16 0.00 0.00
2:55 am 02:55 Clear 67 19.5 65 18.6 95 95 Calm 29.94 1014 10 16 0.00 0.00
3:15 am 03:15 Clear 67 19.3 65 18.6 96 96 Calm 29.94 1014 10 16 0.00 0.00
3:35 am 03:35 Clear 67 19.4 65 18.6 95 95 N 3 6 29.94 1014 10 16 0.00 0.00
3:55 am 03:55 Clear 67 19.2 65 18.5 96 96 N 3 6 29.94 1014 10 16 0.00 0.00
4:15 am 04:15 Clear 68 19.8 66 18.7 93 93 N 5 7 29.91 1013 10 16 0.00 0.00
4:35 am 04:35 Clear 67 19.7 65 18.6 93 93 N 5 7 29.91 1013 10 16 0.00 0.00
4:55 am 04:55 Clear 67 19.7 66 18.7 94 94 N 5 7 29.91 1013 10 16 0.00 0.00
5:15 am 05:15 Clear 68 19.8 66 18.8 94 94 Calm 29.91 1013 10 16 0.00 0.00
5:35 am 05:35 Clear 67 19.5 66 18.7 95 95 Calm 29.91 1013 10 16 0.00 0.00
5:55 am 05:55 Clear 67 19.6 66 18.7 95 95 NNE 3 6 29.91 1013 10 16 0.00 0.00
6:15 am 06:15 Sunny 68 19.8 66 18.9 95 95 Calm 29.91 1013 10 16 0.00 0.00
6:35 am 06:35 Sunny 68 19.9 66 18.8 93 93 NNE 5 7 29.94 1014 10 16 0.00 0.00
6:55 am 06:55 Sunny 68 19.9 66 18.8 93 93 NNE 3 6 29.94 1014 10 16 0.00 0.00
7:15 am 07:15 Sunny 68 20.2 67 19.3 95 95 NW 3 6 29.94 1014 10 16 0.00 0.00
7:35 am 07:35 Sunny 71 21.8 67 19.6 87 87 NNE 3 6 29.94 1014 10 16 0.00 0.00
7:55 am 07:55 Sunny 72 22.1 68 19.8 87 87 N 3 6 29.94 1014 10 16 0.00 0.00
8:15 am 08:15 Sunny 73 23 68 19.8 82 82 ENE 3 6 29.94 1014 10 16 0.00 0.00
8:35 am 08:35 Sunny 74 23.5 68 19.9 80 80 NE 5 7 29.94 1014 10 16 0.00 0.00
8:55 am 08:55 Sunny 76 24.3 67 19.5 75 75 E 5 7 29.94 1014 10 16 0.00 0.00
9:15 am 09:15 Sunny 77 24.9 67 19.6 72 72 E 3 6 29.94 1014 10 16 0.00 0.00
9:35 am 09:35 Sunny 77 25 67 19.2 70 70 E 10 17 29.94 1014 10 16 0.00 0.00
9:55 am 09:55 Partly Cloudy 77 25.2 67 19.3 70 70 E 6 9 29.94 1014 10 16 0.00 0.00
10:15 am 10:15 Partly Cloudy 77 25.2 67 19.6 71 71 ESE 7 11 29.94 1014 7 11 0.00 0.00
10:35 am 10:35 Mostly Cloudy 78 25.4 67 19.7 71 71 E 8 13 29.94 1014 10 16 0.00 0.00
10:55 am 10:55 Sunny 79 26 68 20.1 70 70 E 9 15 29.94 1014 10 16 0.00 0.00
11:15 am 11:15 Sunny 80 26.7 68 20.1 67 67 E 8 13 29.94 1014 10 16 0.00 0.00
11:35 am 11:35 Mostly Cloudy 81 27 69 20.4 67 67 E 6 9 29.94 1014 10 16 0.00 0.00
11:55 am 11:55 Cloudy 81 27 68 20 66 66 NE 6 9 29.94 1014 10 16 0.00 0.00
12:15 pm 12:15 Cloudy 81 27.3 67 19.5 62 62 ENE 9 15 29.94 1014 10 16 0.00 0.00
12:35 pm 12:35 Cloudy 82 27.7 67 19.7 62 62 ENE 8 13 29.91 1013 10 16 0.00 0.00
12:55 pm 12:55 Cloudy 83 28.3 68 20 61 61 E 8 13 29.88 1012 7 11 0.00 0.00
1:15 pm 13:15 Mostly Cloudy 84 28.7 66 19.1 56 56 E 9 15 29.88 1012 10 16 0.00 0.00
1:35 pm 13:35 Cloudy 85 29.2 67 19.6 56 56 E 10 17 29.88 1012 7 11 0.00 0.00
1:55 pm 13:55 Mostly Cloudy with Haze 87 30.4 66 18.9 50 50 E 17 28 29.88 1012 4 6 0.00 0.00
2:15 pm 14:15 Hazy 87 30.4 66 18.7 50 50 E 13 20 29.85 1011 5 8 0.00 0.00
2:35 pm 14:35 Sunny 87 30.5 67 19.2 51 51 ESE 13 20 29.85 1011 10 16 0.00 0.00
2:55 pm 14:55 Sunny 88 30.9 66 19.1 49 49 E 10 17 29.85 1011 10 16 0.00 0.00
3:15 pm 15:15 Sunny 88 31.2 66 18.7 47 47 E 15 24 29.85 1011 10 16 0.00 0.00
3:35 pm 15:35 Sunny 88 31.2 66 19.1 49 49 E 12 19 29.85 1011 10 16 0.00 0.00
3:55 pm 15:55 Partly Cloudy 88 30.9 66 19.1 49 49 E 17 28 29.83 1010 10 16 0.00 0.00
4:15 pm 16:15 Sunny 88 31 67 19.6 51 51 E 16 26 29.83 1010 10 16 0.00 0.00
4:35 pm 16:35 Partly Cloudy 88 31.3 68 19.9 51 51 E 14 22 29.83 1010 10 16 0.00 0.00
4:55 pm 16:55 Partly Cloudy 88 31.3 66 18.7 47 47 ESE 12 19 29.83 1010 10 16 0.00 0.00
5:15 pm 17:15 Partly Cloudy 89 31.7 67 19.2 47 47 ESE 13 20 29.80 1009 10 16 0.00 0.00
5:35 pm 17:35 Partly Cloudy 87 30.6 67 19.2 51 51 E 14 22 29.80 1009 10 16 0.00 0.00
5:55 pm 17:55 Sunny 87 30.5 67 19.2 51 51 ESE 13 20 29.80 1009 10 16 0.00 0.00
6:15 pm 18:15 Sunny 85 29.7 67 19.6 55 55 E 13 20 29.80 1009 10 16 0.00 0.00
6:35 pm 18:35 Sunny 85 29.6 69 20.3 57 57 ESE 8 13 29.80 1009 10 16 0.00 0.00
6:55 pm 18:55 Partly Cloudy 85 29.4 68 20 57 57 E 10 17 29.80 1009 10 16 0.00 0.00
7:15 pm 19:15 Partly Cloudy 85 29.2 68 20.2 58 58 E 10 17 29.80 1009 10 16 0.00 0.00
7:35 pm 19:35 Sunny 85 29.2 68 19.9 57 57 E 10 17 29.80 1009 10 16 0.00 0.00
7:55 pm 19:55 Sunny 84 28.9 68 19.9 58 58 ESE 10 17 29.80 1009 10 16 0.00 0.00
8:15 pm 20:15 Sunny 84 28.7 68 20 59 59 E 6 9 29.80 1009 10 16 0.00 0.00
8:35 pm 20:35 Sunny 83 28.3 68 20.1 61 61 ESE 8 13 29.80 1009 10 16 0.00 0.00
8:55 pm 20:55 Sunny 83 28.3 68 20 61 61 ESE 8 13 29.80 1009 10 16 0.00 0.00
9:15 pm 21:15 Mostly Cloudy with Light Rain 81 27.1 69 20.7 68 68 ESE 6 9 29.80 1009 10 16 0.00 0.00
9:35 pm 21:35 Partly Cloudy with Light Rain 80 26.9 69 20.5 68 68 ESE 6 9 29.83 1010 10 16 0.00 0.00
9:55 pm 21:55 Partly Cloudy 80 26.6 69 20.6 70 70 E 3 6 29.80 1009 10 16 0.00 0.00
10:15 pm 22:15 Partly Cloudy 80 26.6 69 20.5 69 69 E 6 9 29.80 1009 10 16 0.00 0.00
10:35 pm 22:35 Mostly Cloudy 79 26.1 69 20.7 72 72 ENE 6 9 29.83 1010 10 16 0.00 0.00
10:55 pm 22:55 Partly Cloudy 79 26.2 69 20.6 71 71 E 7 11 29.83 1010 10 16 0.00 0.00
11:15 pm 23:15 Mostly Cloudy 78 25.8 69 20.6 73 73 E 6 9 29.83 1010 10 16 0.00 0.00
11:35 pm 23:35 Mostly Cloudy 79 26.2 69 20.7 72 72 E 7 11 29.83 1010 10 16 0.00 0.00
11:55 pm 23:55 Mostly Cloudy 79 26.2 69 20.7 72 72 E 7 11 29.83 1010 10 16 0.00 0.00

Powered by AerisWeather